Regional Weather Roundup
Issued by NWS

Home | Current Version | Previous Version | Text Only | Print | Product List | Glossary Off
Versions: 1 2 3 4 5 6 7 8 9 10 11 12 13 14 15 16 17 18 19 20 21 22 23 24 25 26 27 28 29 30 31 32 33 34 35 36 37 38 39 40 41 42 43 44 45 46 47 48 49 50

000
ASUS45 KABQ 032210
RWRNM
NEW MEXICO REGIONAL WEATHER ROUNDUP
NATIONAL WEATHER SERVICE ALBUQUERQUE NM
400 PM MDT MON AUG 03 2015

NOTE: "FAIR" MEANS FEW OR NO CLOUDS BELOW 12,000 FEET AGL WITH NO
       SIGNIFICANT WEATHER OR OBSTRUCTIONS TO VISION.

      THIS PRODUCT IS RELEASED AS TWO VERSIONS.  ONE VERSION NEAR
      THE TOP OF THE HOUR CONTAINING PRELIMINARY DATA FROM ALBUQUERQUE
      AND OTHER STATIONS.  A FINAL VERSION WITH ADDITIONAL DATA IS
      ISSUED ABOUT 10 MINUTES AFTER THE HOUR.

NMZ501-503-504-510>518-032300-
NORTHWEST PLATEAU/NORTHCENTRAL MOUNTAINS

CITY           SKY/WX    TMP DP  RH WIND       PRES   REMARKS
FARMINGTON     MOSUNNY   84  45  25 NW12G24   30.12F
LOS ALAMOS     MOSUNNY   74  50  43 CALM      30.24F
SANTA FE       MOSUNNY   83  49  30 VRB6      30.15F
TAOS           MOSUNNY  N/A N/A N/A NW8       30.21F
ANGEL FIRE     FAIR      71  51  49 W18G25    30.30F

$$
NMZ402-403-502-505>509-032300-
WESTCENTRAL MOUNTAINS/SOUTHWEST MOUNTAINS

CITY           SKY/WX    TMP DP  RH WIND       PRES   REMARKS
GALLUP         MOSUNNY   83  43  24 MISG      30.20F
GRANTS         SUNNY     82  46  29 N13G21    30.23F
SILVER CITY      N/A     90  45  20 SW6       30.12F

$$
NMZ407-409-411-412-032300-
SOUTHERN DESERTS

CITY           SKY/WX    TMP DP  RH WIND       PRES   REMARKS
LORDSBURG      FAIR      95  43  16 NW12G18   30.01F
DEMING         MOSUNNY   93  47  20 VRB7      30.01F
LAS CRUCES     SUNNY     90  55  29 N5        30.04F
HOLLOMAN AFB   SUNNY     95  52  22 W12       29.96F
ALAMOGORDO     MOSUNNY   93  52  24 CALM      29.99F
T OR C         MOSUNNY   92  51  24 E6G18     30.04F

$$
NMZ519>523-032300-
CENTRAL VALLEYS/CENTRAL HIGHLANDS

CITY           SKY/WX    TMP DP  RH WIND       PRES   REMARKS
ALBUQUERQUE    MOSUNNY   89  46  22 NW16G22   30.10F
DOUBLE EAGLE     N/A     84  48  28 NW15      30.15F
MORIARTY ARPT    N/A     83  43  23 W13G24    30.16F
CLINES CORNERS SUNNY     80  50  34 NW17      30.20F
BELEN          FAIR      91  41  17 NW13G21   30.09F
SOCORRO        FAIR      92  43  18 N16G23    30.05F

$$
NMZ524>526-539-540-032300-
SOUTHCENTRAL MOUNTAINS

CITY           SKY/WX    TMP DP  RH WIND       PRES   REMARKS
RUIDOSO          N/A    N/A N/A N/A MISG        N/A

$$
NMZ527>531-032300-
NORTHEAST HIGHLANDS/NORTHEAST PLAINS

CITY           SKY/WX    TMP DP  RH WIND       PRES   REMARKS
RATON          MOSUNNY   83  52  34 VRB5      30.11F
CLAYTON        MOSUNNY   82  65  56 SE18G26   30.02F

$$
NMZ532>537-032300-
EASTCENTRAL PLAINS

CITY           SKY/WX    TMP DP  RH WIND       PRES   REMARKS
TUCUMCARI      SUNNY     89  62  40 SE8       29.96F
CANNON AFB     MOSUNNY   84  66  55 SE22G28   30.00F
CLOVIS AIRPORT MOSUNNY   86  63  45 S18       30.03F

$$
NMZ028-029-538-032300-
SOUTHEAST PLAINS

CITY           SKY/WX    TMP DP  RH WIND       PRES   REMARKS
ROSWELL        LGT RAIN  73  60  63 SW17G26   29.98F
ARTESIA        HVY RAIN  70  66  88 N28G33    30.03R
CARLSBAD       MOSUNNY   94  58  29 E9        29.92F
HOBBS          MOSUNNY   95  61  31 VRB5      29.96F HX  95


$$


USA.gov is the U.S. government's official web portal to all federal, state and local government web resources and services.